| time (UTC) | temp F | wind direction | speed MPH | gust MPH | rain 1hr in | rain 24hr in | rain mn in | humidity % | barometer mb |
| 20260504223733 | 49 | 137 | 3.0 | 5.0 | 0.07 | 0.01 | 0.01 | 66 | 1017.4 |
| 20260504223229 | 50 | 226 | 1.0 | 1.0 | 0.00 | 0.00 | 0.00 | 58 | 1017.0 |
| 20260504222727 | 51 | 45 | 2.0 | 2.0 | 0.00 | 0.00 | 0.00 | 56 | 1017.2 |
| 20260504222223 | 52 | 41 | 5.0 | 8.0 | 0.00 | 0.00 | 0.00 | 58 | 1017.0 |
| 20260504221720 | 54 | 166 | 0.0 | 1.0 | 0.00 | 0.00 | 0.00 | 52 | 1016.9 |
| 20260504221218 | 55 | 63 | 4.0 | 5.0 | 0.00 | 0.00 | 0.00 | 46 | 1016.9 |
| 20260504220714 | 56 | 16 | 4.0 | 7.0 | 0.00 | 0.00 | 0.00 | 44 | 1017.0 |
| 20260504220212 | 56 | 156 | 5.0 | 6.0 | 0.00 | 0.00 | 0.00 | 44 | 1016.5 |
| 20260504215708 | 57 | 0 | 1.0 | 3.0 | 0.00 | 0.00 | 0.00 | 45 | 1016.3 |
| 20260504215206 | 57 | 223 | 1.0 | 1.0 | 0.00 | 0.00 | 0.00 | 44 | 1016.3 |
| 20260504214701 | 58 | 151 | 2.0 | 2.0 | 0.00 | 0.00 | 0.00 | 42 | 1016.1 |
| 20260504214158 | 58 | 302 | 1.0 | 1.0 | 0.00 | 0.00 | 0.00 | 42 | 1016.1 |
| 20260504213654 | 58 | 22 | 1.0 | 1.0 | 0.00 | 0.00 | 0.00 | 40 | 1016.5 |
| 20260504213151 | 58 | 159 | 2.0 | 2.0 | 0.00 | 0.00 | 0.00 | 39 | 1016.5 |
| 20260504212647 | 58 | 231 | 2.0 | 3.0 | 0.00 | 0.00 | 0.00 | 40 | 1016.4 |
| 20260504212144 | 59 | 271 | 3.0 | 5.0 | 0.00 | 0.00 | 0.00 | 39 | 1016.6 |
| 20260504211642 | 59 | 251 | 1.0 | 2.0 | 0.00 | 0.00 | 0.00 | 40 | 1016.6 |
| 20260504211138 | 58 | 105 | 2.0 | 3.0 | 0.00 | 0.00 | 0.00 | 41 | 1016.8 |
| 20260504210636 | 57 | 290 | 3.0 | 3.0 | 0.00 | 0.00 | 0.00 | 41 | 1016.8 |
| 20260504210132 | 58 | 132 | 0.0 | 1.0 | 0.00 | 0.00 | 0.00 | 43 | 1016.6 |
| 20260504205630 | 56 | 210 | 1.0 | 1.0 | 0.00 | 0.00 | 0.00 | 44 | 1017.0 |
| 20260504205127 | 57 | 338 | 3.0 | 5.0 | 0.00 | 0.00 | 0.00 | 42 | 1017.3 |
| 20260504204626 | 57 | 21 | 5.0 | 6.0 | 0.00 | 0.00 | 0.00 | 45 | 1016.9 |
| 20260504204124 | 55 | 308 | 1.0 | 2.0 | 0.00 | 0.00 | 0.00 | 46 | 1017.0 |
| 20260504203622 | 55 | 350 | 4.0 | 5.0 | 0.00 | 0.00 | 0.00 | 46 | 1017.3 |
| 20260504203119 | 55 | 347 | 6.0 | 8.0 | 0.00 | 0.00 | 0.00 | 47 | 1017.5 |
| 20260504202614 | 56 | 3 | 9.0 | 10.0 | 0.00 | 0.00 | 0.00 | 47 | 1017.7 |
| 20260504202111 | 56 | 306 | 4.0 | 7.0 | 0.00 | 0.00 | 0.00 | 47 | 1017.9 |
| 20260504201608 | 55 | 133 | 4.0 | 7.0 | 0.00 | 0.00 | 0.00 | 49 | 1017.8 |
| 20260504201106 | 55 | 139 | 2.0 | 5.0 | 0.00 | 0.00 | 0.00 | 51 | 1017.9 |
| 20260504200603 | 54 | 9 | 3.0 | 5.0 | 0.00 | 0.00 | 0.00 | 51 | 1017.9 |
| 20260504200059 | 54 | 68 | 4.0 | 5.0 | 0.00 | 0.00 | 0.00 | 51 | 1017.7 |
| 20260504195555 | 55 | 270 | 5.0 | 9.0 | 0.00 | 0.00 | 0.00 | 48 | 1018.0 |
| 20260504195051 | 54 | 58 | 6.0 | 8.0 | 0.00 | 0.00 | 0.00 | 48 | 1017.9 |
| 20260504194548 | 54 | 63 | 8.0 | 10.0 | 0.00 | 0.00 | 0.00 | 47 | 1018.2 |
| 20260504194043 | 55 | 354 | 4.0 | 5.0 | 0.00 | 0.00 | 0.00 | 46 | 1018.3 |
| 20260504193540 | 56 | 30 | 3.0 | 3.0 | 0.00 | 0.00 | 0.00 | 46 | 1017.9 |
| 20260504193039 | 55 | 144 | 3.0 | 3.0 | 0.00 | 0.00 | 0.00 | 45 | 1017.7 |
| 20260504192537 | 55 | 148 | 5.0 | 5.0 | 0.00 | 0.00 | 0.00 | 45 | 1017.8 |
| 20260504192035 | 56 | 71 | 1.0 | 3.0 | 0.00 | 0.00 | 0.00 | 46 | 1017.9 |
| 20260504191533 | 57 | 207 | 2.0 | 2.0 | 0.00 | 0.00 | 0.00 | 44 | 1017.9 |
| 20260504191028 | 56 | 166 | 2.0 | 2.0 | 0.00 | 0.00 | 0.00 | 46 | 1017.8 |
| 20260504190525 | 54 | 178 | 2.0 | 2.0 | 0.00 | 0.00 | 0.00 | 46 | 1018.0 |
| 20260504190021 | 54 | 115 | 5.0 | 6.0 | 0.00 | 0.00 | 0.00 | 46 | 1017.9 |
| 20260504185518 | 55 | 130 | 6.0 | 9.0 | 0.00 | 0.00 | 0.00 | 47 | 1018.3 |
| 20260504185015 | 56 | 233 | 4.0 | 5.0 | 0.00 | 0.00 | 0.00 | 45 | 1017.9 |
| 20260504184510 | 55 | 44 | 1.0 | 2.0 | 0.00 | 0.00 | 0.00 | 43 | 1018.3 |
| 20260504184006 | 55 | 272 | 3.0 | 3.0 | 0.00 | 0.00 | 0.00 | 46 | 1017.8 |
| 20260504183503 | 54 | 38 | 6.0 | 7.0 | 0.00 | 0.00 | 0.00 | 45 | 1017.8 |
| 20260504183001 | 55 | 265 | 6.0 | 7.0 | 0.00 | 0.00 | 0.00 | 45 | 1018.2 |
| 20260504182457 | 56 | 345 | 3.0 | 3.0 | 0.00 | 0.00 | 0.00 | 41 | 1017.9 |
| 20260504181955 | 56 | 335 | 3.0 | 3.0 | 0.00 | 0.00 | 0.00 | 39 | 1017.8 |
| 20260504181452 | 57 | 251 | 2.0 | 2.0 | 0.00 | 0.00 | 0.00 | 38 | 1017.7 |
| 20260504180951 | 57 | 192 | 3.0 | 3.0 | 0.00 | 0.00 | 0.00 | 38 | 1017.8 |
| 20260504180449 | 57 | 223 | 1.0 | 1.0 | 0.00 | 0.00 | 0.00 | 37 | 1017.7 |
| 20260504175947 | 57 | 54 | 3.0 | 5.0 | 0.00 | 0.00 | 0.00 | 37 | 1017.7 |
| 20260504175444 | 58 | 277 | 4.0 | 5.0 | 0.00 | 0.00 | 0.00 | 37 | 1017.3 |
| 20260504174941 | 58 | 225 | 0.0 | 0.0 | 0.00 | 0.00 | 0.00 | 37 | 1017.7 |
| 20260504174439 | 58 | 30 | 3.0 | 3.0 | 0.00 | 0.00 | 0.00 | 36 | 1017.4 |
| 20260504173936 | 59 | 176 | 3.0 | 3.0 | 0.00 | 0.00 | 0.00 | 36 | 1017.7 |
| 20260504173432 | 59 | 0 | 4.0 | 5.0 | 0.00 | 0.00 | 0.00 | 36 | 1017.4 |
| 20260504172930 | 60 | 76 | 3.0 | 7.0 | 0.00 | 0.00 | 0.00 | 36 | 1017.8 |
| 20260504172426 | 60 | 215 | 2.0 | 3.0 | 0.00 | 0.00 | 0.00 | 35 | 1017.9 |
| 20260504171922 | 61 | 244 | 2.0 | 3.0 | 0.00 | 0.00 | 0.00 | 33 | 1017.7 |
| 20260504171420 | 61 | 315 | 5.0 | 6.0 | 0.00 | 0.00 | 0.00 | 33 | 1017.9 |
| 20260504170917 | 61 | 30 | 0.0 | 1.0 | 0.00 | 0.00 | 0.00 | 33 | 1018.2 |
| 20260504170413 | 59 | 161 | 0.0 | 0.0 | 0.00 | 0.00 | 0.00 | 35 | 1017.9 |
| 20260504160332 | 59 | 308 | 2.0 | 3.0 | 0.00 | 0.00 | 0.00 | 39 | 1018.9 |
| 20260504150756 | 54 | 160 | 3.0 | 3.0 | 0.00 | 0.00 | 0.00 | 41 | 1019.3 |
| 20260504150253 | 53 | 253 | 4.0 | 7.0 | 0.00 | 0.00 | 0.00 | 41 | 1019.4 |
| 20260504141223 | 46 | 219 | 0.0 | 0.0 | 0.00 | 0.00 | 0.00 | 59 | 1019.4 |
| 20260504140720 | 44 | 210 | 0.0 | 0.0 | 0.00 | 0.00 | 0.00 | 56 | 1019.4 |
| 20260504140215 | 43 | 196 | 1.0 | 1.0 | 0.00 | 0.00 | 0.00 | 59 | 1019.4 |
| 20260504130643 | 39 | 218 | 0.0 | 0.0 | 0.00 | 0.00 | 0.00 | 59 | 1019.2 |
| 20260504130140 | 38 | 224 | 0.0 | 0.0 | 0.00 | 0.00 | 0.00 | 60 | 1019.0 |
| 20260504120104 | 36 | 214 | 0.0 | 0.0 | 0.00 | 0.00 | 0.00 | 62 | 1018.5 |
| 20260504110531 | 36 | 208 | 0.0 | 0.0 | 0.00 | 0.00 | 0.00 | 60 | 1019.0 |
| 20260504100448 | 37 | 214 | 0.0 | 0.0 | 0.00 | 0.00 | 0.00 | 59 | 1019.4 |
| 20260504081841 | 39 | 189 | 1.0 | 1.0 | 0.00 | 0.00 | 0.00 | 53 | 1019.8 |
| 20260504081337 | 39 | 204 | 0.0 | 0.0 | 0.00 | 0.00 | 0.00 | 54 | 1019.9 |
| 20260504080833 | 39 | 181 | 1.0 | 1.0 | 0.00 | 0.00 | 0.00 | 55 | 1020.1 |
| 20260504080331 | 39 | 185 | 1.0 | 1.0 | 0.00 | 0.00 | 0.00 | 55 | 1020.3 |
| 20260504070258 | 41 | 199 | 0.0 | 0.0 | 0.00 | 0.00 | 0.00 | 52 | 1020.7 |
| 20260504060219 | 42 | 229 | 0.0 | 0.0 | 0.00 | 0.00 | 0.00 | 55 | 1020.9 |
| 20260504050646 | 43 | 195 | 0.0 | 0.0 | 0.00 | 0.00 | 0.00 | 54 | 1021.6 |
| 20260504050143 | 43 | 195 | 1.0 | 1.0 | 0.00 | 0.00 | 0.00 | 54 | 1021.1 |
| 20260504045640 | 43 | 176 | 0.0 | 1.0 | 0.00 | 0.00 | 0.00 | 54 | 1021.6 |
| 20260504045140 | 44 | 208 | 0.0 | 0.0 | 0.00 | 0.00 | 0.00 | 53 | 1021.3 |
| 20260504044638 | 44 | 204 | 0.0 | 0.0 | 0.00 | 0.00 | 0.00 | 54 | 1021.4 |
| 20260504044135 | 44 | 202 | 0.0 | 1.0 | 0.00 | 0.00 | 0.00 | 52 | 1021.6 |
| 20260504043632 | 44 | 207 | 0.0 | 0.0 | 0.00 | 0.00 | 0.00 | 52 | 1021.8 |
| 20260504043129 | 45 | 208 | 0.0 | 0.0 | 0.00 | 0.00 | 0.00 | 51 | 1021.4 |
| 20260504042626 | 45 | 188 | 1.0 | 1.0 | 0.00 | 0.00 | 0.00 | 51 | 1021.7 |
| 20260504042123 | 45 | 203 | 0.0 | 0.0 | 0.00 | 0.00 | 0.00 | 52 | 1021.7 |
| 20260504041619 | 46 | 220 | 0.0 | 0.0 | 0.00 | 0.00 | 0.00 | 51 | 1022.0 |
| 20260504041115 | 46 | 203 | 0.0 | 0.0 | 0.00 | 0.00 | 0.00 | 51 | 1021.8 |
| 20260504040613 | 45 | 198 | 0.0 | 1.0 | 0.00 | 0.00 | 0.00 | 51 | 1022.0 |
| 20260504040109 | 45 | 226 | 0.0 | 1.0 | 0.00 | 0.00 | 0.00 | 52 | 1021.7 |
| 20260504035606 | 46 | 200 | 1.0 | 1.0 | 0.00 | 0.00 | 0.00 | 52 | 1021.7 |
| 20260504035102 | 46 | 215 | 0.0 | 0.0 | 0.00 | 0.00 | 0.00 | 52 | 1021.8 |
| 20260504034601 | 46 | 179 | 2.0 | 2.0 | 0.00 | 0.00 | 0.00 | 52 | 1022.1 |
| 20260504034057 | 47 | 231 | 0.0 | 0.0 | 0.00 | 0.00 | 0.00 | 51 | 1022.0 |
| 20260504033555 | 47 | 222 | 0.0 | 0.0 | 0.00 | 0.00 | 0.00 | 50 | 1021.8 |
| 20260504033052 | 48 | 198 | 0.0 | 0.0 | 0.00 | 0.00 | 0.00 | 48 | 1021.8 |
| 20260504032549 | 47 | 186 | 1.0 | 1.0 | 0.00 | 0.00 | 0.00 | 48 | 1021.8 |
| 20260504032046 | 48 | 190 | 1.0 | 1.0 | 0.00 | 0.00 | 0.00 | 49 | 1021.8 |
| 20260504031543 | 49 | 211 | 0.0 | 0.0 | 0.00 | 0.00 | 0.00 | 47 | 1021.3 |
| 20260504031039 | 49 | 183 | 2.0 | 2.0 | 0.00 | 0.00 | 0.00 | 47 | 1022.0 |
| 20260504030537 | 48 | 199 | 1.0 | 1.0 | 0.00 | 0.00 | 0.00 | 48 | 1022.0 |
| 20260504030032 | 48 | 207 | 0.0 | 0.0 | 0.00 | 0.00 | 0.00 | 47 | 1021.8 |
| 20260504025530 | 49 | 205 | 0.0 | 0.0 | 0.00 | 0.00 | 0.00 | 48 | 1022.0 |
| 20260504025026 | 49 | 224 | 0.0 | 0.0 | 0.00 | 0.00 | 0.00 | 46 | 1021.8 |
| 20260504024523 | 49 | 176 | 2.0 | 2.0 | 0.00 | 0.00 | 0.00 | 46 | 1021.7 |
| 20260504024020 | 49 | 210 | 0.0 | 0.0 | 0.00 | 0.00 | 0.00 | 47 | 1021.7 |
| 20260504023517 | 50 | 209 | 1.0 | 1.0 | 0.00 | 0.00 | 0.00 | 48 | 1021.4 |
| 20260504023013 | 50 | 152 | 2.0 | 2.0 | 0.00 | 0.00 | 0.00 | 43 | 1021.8 |
| 20260504022509 | 50 | 197 | 0.0 | 1.0 | 0.00 | 0.00 | 0.00 | 44 | 1022.0 |
| 20260504022005 | 50 | 169 | 2.0 | 2.0 | 0.00 | 0.00 | 0.00 | 44 | 1021.7 |
| 20260504021503 | 51 | 220 | 0.0 | 0.0 | 0.00 | 0.00 | 0.00 | 45 | 1021.6 |
| 20260504021000 | 51 | 207 | 0.0 | 0.0 | 0.00 | 0.00 | 0.00 | 41 | 1021.8 |
| 20260504020456 | 52 | 214 | 0.0 | 0.0 | 0.00 | 0.00 | 0.00 | 42 | 1021.4 |
| 20260504015953 | 53 | 220 | 0.0 | 0.0 | 0.00 | 0.00 | 0.00 | 40 | 1021.6 |
| 20260504015449 | 53 | 204 | 0.0 | 0.0 | 0.00 | 0.00 | 0.00 | 39 | 1021.7 |
| 20260504014945 | 54 | 204 | 0.0 | 0.0 | 0.00 | 0.00 | 0.00 | 39 | 1021.4 |
| 20260504014441 | 54 | 209 | 0.0 | 0.0 | 0.00 | 0.00 | 0.00 | 39 | 1021.4 |
| 20260504013938 | 55 | 214 | 0.0 | 0.0 | 0.00 | 0.00 | 0.00 | 38 | 1021.3 |
| 20260504013437 | 55 | 208 | 0.0 | 0.0 | 0.00 | 0.00 | 0.00 | 37 | 1021.4 |
| 20260504012932 | 56 | 252 | 1.0 | 1.0 | 0.00 | 0.00 | 0.00 | 37 | 1021.1 |
| 20260504012431 | 56 | 281 | 3.0 | 6.0 | 0.00 | 0.00 | 0.00 | 36 | 1021.4 |
| 20260504011928 | 56 | 166 | 3.0 | 3.0 | 0.00 | 0.00 | 0.00 | 36 | 1021.1 |
| 20260504011425 | 57 | 218 | 0.0 | 0.0 | 0.00 | 0.00 | 0.00 | 35 | 1020.9 |
| 20260504010920 | 57 | 347 | 1.0 | 2.0 | 0.00 | 0.00 | 0.00 | 35 | 1020.9 |
| 20260504010417 | 57 | 224 | 1.0 | 2.0 | 0.00 | 0.00 | 0.00 | 35 | 1021.2 |
| 20260504005913 | 57 | 342 | 5.0 | 6.0 | 0.00 | 0.00 | 0.00 | 34 | 1020.9 |
| 20260504005410 | 57 | 307 | 2.0 | 2.0 | 0.00 | 0.00 | 0.00 | 34 | 1021.2 |
| 20260504004908 | 58 | 29 | 4.0 | 6.0 | 0.00 | 0.00 | 0.00 | 33 | 1021.3 |
| 20260504004405 | 58 | 274 | 2.0 | 2.0 | 0.00 | 0.00 | 0.00 | 33 | 1021.1 |
| 20260504003902 | 58 | 16 | 3.0 | 3.0 | 0.00 | 0.00 | 0.00 | 33 | 1021.2 |
| 20260504003358 | 59 | 356 | 2.0 | 3.0 | 0.00 | 0.00 | 0.00 | 32 | 1021.1 |
| 20260504002855 | 60 | 352 | 3.0 | 3.0 | 0.00 | 0.00 | 0.00 | 30 | 1021.1 |
| 20260504002352 | 60 | 231 | 0.0 | 0.0 | 0.00 | 0.00 | 0.00 | 30 | 1021.2 |
| 20260504001849 | 60 | 216 | 0.0 | 1.0 | 0.00 | 0.00 | 0.00 | 30 | 1021.1 |
| 20260504001347 | 59 | 237 | 1.0 | 2.0 | 0.00 | 0.00 | 0.00 | 31 | 1020.8 |
| 20260504000843 | 58 | 239 | 0.0 | 0.0 | 0.00 | 0.00 | 0.00 | 32 | 1021.1 |
| 20260504000341 | 59 | 117 | 11.0 | 14.0 | 0.00 | 0.00 | 0.00 | 31 | 1020.9 |
| 20260503235838 | 59 | 234 | 1.0 | 2.0 | 0.00 | 0.00 | 0.00 | 30 | 1021.1 |
| 20260503235335 | 60 | 132 | 3.0 | 5.0 | 0.00 | 0.00 | 0.00 | 29 | 1021.2 |
| 20260503234833 | 60 | 244 | 2.0 | 3.0 | 0.00 | 0.00 | 0.00 | 29 | 1021.1 |
| 20260503234330 | 60 | 232 | 3.0 | 3.0 | 0.00 | 0.00 | 0.00 | 28 | 1020.8 |
| 20260503233828 | 60 | 246 | 4.0 | 5.0 | 0.00 | 0.00 | 0.00 | 24 | 1020.8 |
| 20260503233323 | 60 | 225 | 1.0 | 1.0 | 0.00 | 0.00 | 0.00 | 29 | 1020.9 |
| 20260503232820 | 60 | 58 | 5.0 | 8.0 | 0.00 | 0.00 | 0.00 | 26 | 1020.4 |
| 20260503232318 | 61 | 148 | 2.0 | 3.0 | 0.00 | 0.00 | 0.00 | 25 | 1020.4 |
| 20260503231816 | 60 | 196 | 1.0 | 2.0 | 0.00 | 0.00 | 0.00 | 26 | 1020.7 |
| 20260503231312 | 61 | 226 | 0.0 | 0.0 | 0.00 | 0.00 | 0.00 | 26 | 1020.8 |
| 20260503230808 | 61 | 201 | 1.0 | 2.0 | 0.00 | 0.00 | 0.00 | 28 | 1020.8 |
| 20260503230306 | 61 | 229 | 0.0 | 1.0 | 0.00 | 0.00 | 0.00 | 26 | 1020.7 |
| 20260503225803 | 60 | 248 | 2.0 | 2.0 | 0.00 | 0.00 | 0.00 | 27 | 1021.1 |
| 20260503225258 | 60 | 245 | 1.0 | 2.0 | 0.00 | 0.00 | 0.00 | 26 | 1020.7 |
| 20260503224755 | 60 | 238 | 3.0 | 3.0 | 0.00 | 0.00 | 0.00 | 28 | 1020.9 |
| 20260503224253 | 61 | 225 | 1.0 | 1.0 | 0.00 | 0.00 | 0.00 | 27 | 1020.8 |